Simultaneous Nadir Overpasses (SNOs) Predictions

Prediction of SNOs between GOES-17 and TERRA Satellite Orbit:

Table of predicted SNOs for the next 14.0 days since TLE Epoch: 6/14/2024
Index Date Time (GOES-17) GOES-17 Lat,Lon TERRA Lat,Lon Distance(km) Time Diff (sec)
1 06/16/2024 16:46:01 -0.02,-104.72 0.03,-105.08 40.86 80
2 06/18/2024 16:28:35 0.01,-104.72 -0.79,-100.87 437.26 80
3 06/19/2024 04:51:18 -0.01,-104.70 -0.25,-105.74 118.53 80
4 06/21/2024 04:31:13 -0.01,-104.70 0.67,-101.55 358.28 80
5 06/21/2024 16:51:07 0.01,-104.71 0.38,-106.38 190.71 80
6 06/23/2024 16:36:22 -0.01,-104.70 -0.55,-102.19 285.65 80
7 06/24/2024 04:56:24 0.02,-104.68 -0.46,-107.06 270.12 80
8 06/26/2024 04:36:18 0.03,-104.67 0.39,-102.85 206.62 80
9 06/26/2024 16:56:12 -0.03,-104.69 0.60,-107.70 342.44 80
10 06/28/2024 16:41:25 -0.04,-104.68 -0.27,-103.49 135.07 80
